Presure
335 343 327 303 309 287 308 321 350 352 364 396 236 208 139 206 182 180 190 192 202 211 198 194 191 95 97 126 125 133 135 97 101 135 139 144 139 137 141 142 144 134 152 97 103
317 311 315 314 304 298 305 299 319 355 344 362 376 233 203 188 169 177 182 202 185 205 203 199 191 153 101 114 143 97 114 134 157 142 145 172 117 144 118 102 142 144 103 108 98
322 316 312 304 299 295 297 300 312 324 346 340 370 354 231 196 124 186 185 173 200 99 205 183 202 194 103 207 205 141 102 170 109 139 135 125 110 103 102 109 96 89 103 107 103
314 359 356 359 327 332 329 312 281 311 345 336 346 368 266 208 191 100 88 182 170 123 186 175 171 200 189 105 114 193 191 96 94 131 143 141 152 143 145 99 101 143 142 106 109
308 300 311 331 333 318 316 319 318 337 334 338 328 351 292 230 199 175 184 167 181 178 192 182 195 199 200 193 190 189 177 111 115 117 139 143 143 122 110 134 145 147 140 143 132
200 301 306 319 310 296 296 286 296 304 326 365 342 339 358 309 236 200 188 181 175 180 179 190 183 190 201 161 184 186 184 185 186 182 163 173 101 104 103 117 154 123 143 167 134
297 297 298 307 283 285 282 291 309 302 343 330 365 342 352 278 250 201 194 189 183 181 181 191 184 190 176 194 188 189 98 94 153 185 101 135 187 191 190 185 186 182 99 103 182
128 288 292 292 295 279 286 269 287 309 325 369 341 372 337 263 298 227 203 192 172 183 184 102 189 194 187 185 188 186 93 96 150 98 99 168 100 102 116 102 172 128 114 126 96
291 165 284 289 279 276 270 296 287 300 305 328 409 357 413 338 299 251 210 200 191 95 156 185 181 191 179 180 180 186 139 126 124 188 96 95 96 95 92 151 195 194 96 107 101
227 306 221 288 286 269 277 282 284 284 297 298 358 366 378 339 183 267 217 203 191 190 153 99 190 190 193 110 181 185 125 131 90 163 91 118 165 187 189 112 95 91 138 123 79
276 277 314 317 299 286 277 285 286 267 283 291 297 320 357 375 301 283 230 209 200 190 223 146 176 189 185 107 181 183 89 178 122 91 91 132 182 95 160 86 87 61 76 88 61
273 274 283 309 311 289 293 283 291 300 263 283 286 299 323 367 357 266 251 212 200 196 189 191 182 141 77 71 97 101 82 77 75 81 146 78 80 109 130 95 74 93 91 95 90
243 274 267 286 302 308 294 277 279 282 292 274 291 256 292 308 322 285 280 207 208 197 191 184 155 146 106 163 134 71 138 181 187 132 177 96 77 85 135 80 126 174 177 170 117
202 217 274 267 281 310 322 266 274 279 290 296 290 296 275 198 341 336 275 253 214 201 196 188 184 182 167 168 173 183 185 168 174 172 172 175 172 175 180 170 168 162 169 176 183
200 205 222 275 267 269 269 320 309 371 299 301 280 298 305 309 341 341 262 139 231 207 197 194 186 186 178 160 178 171 166 190 177 169 167 172 171 175 177 178 177 180 184 164 171
206 206 205 237 266 270 266 272 328 322 311 293 229 310 302 305 335 289 252 279 237 219 176 201 194 183 181 185 182 178 176 165 176 176 173 173 176 160 165 177 180 180 170 164 179
224 206 197 206 230 251 269 186 268 278 307 275 326 299 290 330 338 247 335 350 247 227 195 191 198 190 190 184 180 179 185 174 166 164 179 174 175 175 176 170 174 169 167 167 166
228 215 188 190 209 230 241 152 245 222 268 302 317 327 326 322 324 325 327 257 261 242 218 212 201 196 193 187 183 175 174 182 182 178 177 174 168 173 176 174 176 176 180 172 178
224 229 221 214 203 204 225 230 241 197 250 264 279 262 321 321 330 319 318 295 265 209 227 215 205 200 187 191 196 186 188 186 178 177 176 173 169 165 174 182 174 170 165 180 183
224 165 218 227 214 200 196 211 228 233 242 192 262 248 279 216 201 238 318 310 326 182 206 211 212 201 196 167 175 179 183 179 178 175 174 176 177 190 191 177 178 178 151 174 182
180 215 150 219 227 221 200 196 205 220 228 201 241 214 198 183 223 297 281 130 245 192 166 232 216 209 199 189 189 182 178 181 145 180 174 173 173 176 175 162 179 144 187 184 174
118 207 158 134 240 225 222 213 180 204 210 220 226 228 162 233 267 143 156 288 133 226 234 235 238 212 202 115 161 130 177 161 165 159 157 168 149 188 187 186 187 189 188 194 163
200 170 176 153 224 239 217 222 224 205 193 198 209 218 221 228 235 241 169 163 202 137 146 223 227 183 170 216 197 191 185 195 194 204 207 200 206 207 207 206 206 211 208 220 258
167 194 168 139 217 202 217 236 221 220 216 192 188 199 198 212 217 219 225 234 198 183 261 164 250 293 257 225 235 225 194 162 217 218 218 214 220 195 214 236 248 241 231 223 219
174 197 179 195 163 212 206 170 199 216 231 223 215 161 184 196 192 198 205 214 217 217 218 221 224 227 229 231 235 236 234 234 231 227 223 220 218 219 218 214 214 212 209 205 203
174 188 192 201 203 181 194 181 164 197 216 174 226 227 225 207 212 201 190 190 193 196 201 204 204 205 205 205 203 202 204 204 204 203 202 198 197 198 197 200 199 196 196 194 187
185 173 162 194 171 197 196 191 205 158 187 203 204 213 207 215 220 219 213 205 186 182 184 188 183 180 181 179 179 181 185 184 176 184 187 185 183 177 183 183 176 184 187 188 186
Wind_Speed
28 20 20 31 26 46 30 27 23 38 43 44 104 92 58 86 78 74 74 70 76 76 77 73 72 29 32 49 47 52 49 29 30 46 46 46 37 36 42 39 39 36 38 25 29
26 24 24 25 26 26 28 32 25 31 42 42 54 103 91 84 73 78 74 78 75 78 77 75 72 51 30 40 60 30 36 47 56 53 55 54 35 46 35 31 40 40 30 30 30
31 26 26 29 30 33 29 30 28 27 40 47 42 85 103 89 50 86 80 74 81 32 78 70 70 67 33 54 55 62 31 58 33 52 46 42 35 32 31 33 29 16 32 34 34
39 28 27 17 26 30 25 26 32 28 25 48 47 51 109 95 90 25 31 79 68 41 72 62 65 68 67 29 36 50 54 29 29 46 54 52 57 51 52 33 32 47 45 33 35
44 47 32 32 13 6 6 13 15 20 33 38 55 55 99 98 93 80 84 73 75 73 76 70 69 68 67 67 63 58 53 34 41 42 52 55 55 42 36 44 53 52 46 50 40
33 42 37 32 26 28 24 12 8 9 8 29 51 59 58 97 103 93 87 81 76 75 71 74 68 65 67 52 55 59 60 58 56 50 48 50 33 34 33 41 43 40 39 46 45
49 41 37 31 23 21 19 19 14 10 6 20 31 60 59 98 108 92 89 85 81 76 74 74 68 68 60 60 58 61 31 33 47 54 33 40 50 47 49 48 48 46 27 34 41
24 48 37 26 15 21 18 9 11 26 27 25 31 32 65 97 102 98 90 86 73 78 74 30 69 69 65 62 65 63 35 39 45 36 37 49 34 36 37 36 46 42 38 35 29
59 27 46 32 30 20 28 26 17 27 29 34 30 29 44 66 94 102 91 88 83 28 61 74 67 69 65 64 62 59 49 43 44 54 34 31 31 29 25 43 44 42 33 44 38
53 62 32 36 28 28 27 31 18 31 29 23 22 27 35 63 62 102 93 90 85 83 62 36 71 70 69 36 60 62 42 43 29 49 27 31 44 48 44 37 33 29 42 44 26
73 72 54 34 30 29 25 25 25 18 29 23 23 22 32 44 74 94 95 90 87 81 87 52 66 69 67 29 61 61 29 58 40 32 31 40 52 32 43 25 28 5 31 36 12
76 73 73 54 33 33 24 35 23 15 17 23 18 19 23 27 39 91 99 90 87 82 77 76 72 52 20 11 26 28 28 17 24 27 45 22 25 33 38 37 32 43 41 47 47
75 74 73 71 55 34 31 39 36 31 21 13 14 18 21 24 25 69 92 78 86 81 78 74 62 52 36 56 42 24 45 61 61 45 52 27 32 36 44 34 44 47 49 52 44
60 64 75 75 74 49 36 53 43 33 24 19 20 17 15 30 21 25 86 95 86 83 80 77 72 69 53 53 57 62 63 51 54 51 50 51 51 49 51 52 52 54 52 52 61
53 57 65 73 71 72 67 37 28 30 25 25 24 22 22 18 26 32 82 32 90 85 79 78 73 72 66 55 63 56 45 62 57 50 48 50 49 55 54 57 57 57 59 59 56
48 51 55 68 74 70 69 69 44 42 38 35 19 26 26 24 28 25 74 78 88 85 49 79 75 65 62 66 64 62 60 44 53 54 51 51 51 54 57 60 60 60 58 63 65
49 47 48 51 63 73 70 35 72 66 49 47 39 34 30 27 26 21 33 37 85 83 62 60 73 70 70 64 61 60 62 54 39 37 56 54 54 57 62 59 62 65 67 64 63
46 46 42 43 49 58 70 18 64 50 69 59 45 42 34 29 26 25 28 71 73 80 78 76 71 67 68 64 61 52 50 58 60 58 58 56 54 60 64 64 68 68 73 67 75
44 47 46 45 42 44 55 58 67 40 62 66 62 50 42 35 30 24 25 37 62 41 78 73 70 67 55 60 62 61 62 61 59 60 59 57 58 60 67 73 65 66 68 79 80
44 34 42 45 41 39 39 43 54 58 64 33 62 49 53 19 14 15 22 21 22 33 46 65 66 63 59 47 53 56 58 57 59 57 57 63 65 75 75 73 75 77 66 77 81
37 45 25 38 42 38 35 34 36 46 49 37 56 38 25 13 23 35 20 20 15 36 35 63 63 63 61 56 59 55 52 58 48 62 61 64 67 74 74 67 80 62 86 85 77
20 49 24 15 34 35 35 33 25 30 34 39 42 43 8 36 40 11 7 18 20 26 43 49 52 62 60 34 45 40 58 54 54 56 54 63 59 79 79 80 85 90 90 92 69
48 24 35 29 36 31 31 30 29 25 20 21 26 29 31 32 32 29 7 11 7 23 22 27 33 39 42 55 61 64 62 68 69 65 71 77 76 77 79 81 83 84 86 85 65
20 40 21 15 36 35 31 28 26 23 21 14 11 12 12 18 18 19 19 17 6 15 6 28 13 11 30 42 48 50 55 50 58 62 65 69 72 66 62 70 63 65 68 72 74
31 50 30 50 26 35 28 19 26 21 19 15 15 11 7 1 4 6 6 8 8 9 9 10 11 13 17 21 24 29 36 38 42 47 49 55 58 61 61 65 68 70 74 79 83
40 48 46 42 40 32 37 19 23 25 18 15 17 12 7 8 5 8 13 16 17 18 19 21 24 27 29 31 34 42 45 47 51 56 57 62 67 69 72 73 75 78 82 85 86
53 41 42 46 36 41 40 31 18 31 25 27 21 11 10 9 8 10 14 18 26 30 32 33 39 42 45 46 50 54 58 59 60 66 67 69 74 78 80 81 78 84 87 89 92
Wind_Direction
328 315 278 273 272 263 261 261 266 237 233 226 222 223 222 221 225 226 223 221 220 217 222 224 224 206 214 232 232 237 240 222 223 243 247 248 249 254 257 259 262 260 267 263 264
334 321 301 282 274 273 261 254 267 245 229 225 219 220 219 220 222 225 224 218 221 218 220 221 225 221 211 225 235 215 230 241 239 243 248 242 248 254 248 240 263 268 245 263 263
346 332 301 281 274 268 269 262 258 251 232 223 218 212 216 216 221 220 222 219 218 217 218 222 221 225 211 224 226 237 217 235 228 244 248 245 241 244 240 246 248 257 253 255 261
10 21 358 303 272 275 262 255 250 257 242 223 218 213 213 212 215 213 212 222 219 219 222 219 220 220 223 212 220 226 230 216 225 243 248 250 251 255 259 245 250 266 268 259 261
18 17 21 38 30 22 276 248 268 261 241 224 216 213 207 212 213 216 217 221 220 220 219 222 222 218 219 223 224 225 227 220 234 239 248 251 255 248 246 258 265 265 267 272 268
13 17 18 35 61 70 66 66 47 25 285 223 214 211 204 205 209 211 215 219 220 220 220 220 222 222 220 220 223 230 232 233 234 236 240 246 241 243 245 254 258 262 260 267 269
27 26 22 38 48 62 58 35 17 31 298 228 214 212 203 203 208 210 212 215 219 220 220 219 220 221 222 222 225 228 214 223 233 236 237 241 245 250 252 255 257 259 261 258 270
10 32 29 27 33 42 43 18 10 52 39 210 202 205 204 203 202 206 209 213 216 219 222 224 219 219 221 222 222 226 224 225 232 235 238 241 244 246 248 251 257 257 259 264 267
29 17 32 33 31 30 18 24 32 45 45 46 201 202 193 197 200 205 207 210 213 222 221 220 220 218 221 224 226 226 227 231 233 236 242 249 250 251 253 256 260 264 265 260 268
32 31 21 35 33 39 34 34 34 52 43 57 81 165 184 194 202 202 204 207 212 214 220 227 219 219 220 230 227 228 234 238 247 240 252 251 248 250 253 257 260 261 267 268 282
37 37 31 22 39 42 43 35 48 43 49 73 78 83 176 178 196 199 203 205 209 213 208 216 221 220 221 229 227 230 247 237 246 256 257 250 248 256 255 262 265 312 282 273 284
35 40 39 40 35 52 56 53 53 59 60 57 104 89 113 152 189 199 203 203 207 211 214 216 220 220 234 255 244 244 252 255 260 258 250 252 264 259 260 268 280 269 272 272 270
31 37 41 41 44 46 58 60 55 57 65 94 81 128 141 169 172 196 199 204 205 208 213 217 217 218 228 227 229 260 239 236 239 250 247 263 259 266 261 270 267 263 268 268 275
13 26 41 44 47 52 59 52 46 47 63 93 93 99 126 198 156 187 197 201 203 208 211 216 221 224 231 233 236 233 234 245 246 249 251 252 258 260 262 262 263 260 266 273 282
15 20 32 45 48 53 52 55 54 65 79 97 98 94 114 135 148 158 197 211 201 205 212 215 219 222 228 231 234 244 246 239 246 251 255 256 260 265 267 271 272 276 280 264 278
16 21 23 40 46 49 51 54 63 68 76 78 81 100 109 120 140 166 198 196 203 205 207 214 218 225 229 230 235 239 245 253 252 253 257 260 261 258 264 274 279 278 266 266 285
23 18 19 27 42 47 50 51 54 58 63 60 77 86 95 104 124 168 153 163 202 206 209 214 219 223 226 232 238 242 243 248 254 253 257 262 264 266 272 272 273 268 271 268 270
21 23 18 20 33 44 48 49 53 55 59 60 70 75 86 94 109 129 148 196 199 205 210 215 221 224 227 233 237 244 249 251 254 258 261 264 264 268 270 271 273 277 281 281 285
19 23 22 22 24 34 44 49 52 55 55 57 56 63 73 82 99 121 142 178 199 198 211 217 221 225 232 235 237 243 247 252 256 259 263 267 266 261 271 274 273 273 272 281 282
17 3 19 22 22 21 25 42 50 53 54 63 57 60 61 80 122 103 112 155 161 204 207 219 224 229 234 237 242 248 252 256 260 263 265 267 268 267 270 272 274 275 276 276 274
359 14 358 20 20 24 21 26 42 52 55 60 59 64 73 90 75 65 100 219 185 210 216 218 226 231 234 240 242 250 254 257 260 261 262 264 265 264 266 271 272 280 274 273 273
299 6 349 340 32 22 27 29 28 45 56 60 62 63 110 65 66 202 199 90 233 208 216 221 224 233 238 252 233 255 253 244 250 253 261 263 273 264 267 269 270 270 272 277 285
353 347 348 333 21 34 21 28 33 30 39 49 64 70 75 70 69 71 214 224 195 239 244 230 235 233 236 241 246 249 254 255 257 264 265 263 266 268 271 273 274 277 279 281 282
306 349 326 330 13 15 22 37 31 28 30 27 28 74 83 82 89 95 93 86 207 243 84 250 243 243 247 251 252 257 259 264 267 269 271 272 273 274 275 277 277 278 280 281 280
331 342 334 348 312 358 353 338 14 18 29 22 14 290 321 135 195 165 148 139 158 178 193 211 225 239 249 257 264 267 267 269 270 271 274 274 276 276 276 275 276 276 276 277 278
321 331 334 339 341 324 347 343 304 2 359 314 15 11 8 321 302 252 255 244 235 233 233 235 238 242 243 248 252 258 258 259 260 262 262 267 270 273 274 275 276 276 276 276 279
317 316 311 328 307 332 334 323 326 295 336 338 331 334 319 311 303 286 273 266 262 262 260 256 259 261 260 260 263 265 265 265 267 268 269 270 271 277 276 277 279 277 276 277 278